Flag for Switzerland Weather past 2 weeks in Sion, Valais, Switzerland

Now
71 °F

Mild.


Feels Like: 76 °F
Forecast: 50 / 74 °F
Wind: 15 mph from West

Location: Sion

Current Time: Apr 21, 2015 at 4:22:05 PM

Latest Report: Apr 21, 2015 at 3:00 PM


Visibility: N/A

Pressure: 30.18 "Hg

Humidity: 29%

Dew point: 37 °F

Location of SionLocation

Historic Weather in Sion — Graph

°F

Sion temperature yesterday

Maximum temperature yesterday: 69 °F (at 5:00 PM)
Minimum temperature yesterday: 44 °F (at 7:00 AM)
Average temperature yesterday: 57 °F

Past Weeks' High & Low Weather Summary

 TemperatureHumidityPressure
High77 °F (Apr 15, 4:00 PM)92% (Apr 18, 8:00 AM)30.55 "Hg (Apr 18, 8:00 AM)
Low32 °F (Apr 7, 8:00 AM)12% (Apr 15, 3:00 PM)29.88 "Hg (Apr 18, 4:00 PM)
Average55 °F53%30.22 "Hg
* Reported Apr 6 3:00 PM — Apr 21 3:00 PM, Sion, Weather by CustomWeather, © 2015

Note: Actual official high and low records may vary slightly from our data, if they occured in-between our weather recording intervals... More about our weather records

Advertising

Sion weather history for previous 24 hours

 ConditionsComfort  
Time TempWeatherWind HumidityBarometerVisibility
3:00 PM
Tue, Apr 21
71 °FMild.15 mph29%30.18 "HgN/A
2:00 PM71 °FPassing clouds.12 mph28%30.19 "Hg19 mi
1:00 PM68 °FMild.3 mph31%30.22 "HgN/A
12:00 PM64 °FMild.2 mph32%30.25 "HgN/A
11:00 AM61 °FSunny.2 mph44%30.28 "Hg19 mi
10:00 AM56 °FRefreshingly cool.3 mph51%30.30 "HgN/A
9:00 AM52 °FCool.5 mph57%30.33 "HgN/A
8:00 AM48 °FSunny.3 mph71%30.34 "Hg19 mi
7:00 AM45 °FQuite cool.1 mph76%30.33 "HgN/A
6:00 AM46 °FCool.1 mph73%30.30 "HgN/A
5:00 AM46 °FClear.2 mph74%30.28 "Hg16 mi
4:00 AM47 °FCool.1 mph69%30.27 "HgN/A
3:00 AM45 °FCool.1 mph78%30.26 "HgN/A
2:00 AM49 °FClear.1 mph72%30.25 "Hg16 mi
1:00 AM48 °FCool.1 mph74%30.24 "HgN/A
12:00 AM54 °FCool.6 mph57%30.21 "HgN/A
11:00 PM
Mon, Apr 20
55 °FClear.2 mph58%30.19 "Hg16 mi
10:00 PM57 °FRefreshingly cool.2 mph53%30.16 "HgN/A
9:00 PM62 °FRefreshingly cool.9 mph44%30.10 "HgN/A
8:00 PM63 °FScattered clouds.12 mph42%30.07 "Hg19 mi
7:00 PM67 °FMild.16 mph37%30.03 "HgN/A
6:00 PM69 °FMild.15 mph36%30.01 "HgN/A
5:00 PM69 °FScattered clouds.18 mph35%30.01 "Hg19 mi
4:00 PM69 °FMild.21 mph36%30.02 "HgN/A
Weather by CustomWeather, © 2015

See weather overviewHow to use our weather pages